Regional Weather Roundup
Issued by NWS

Home | Current Version | Previous Version | Text Only | Print | Product List | Glossary Off
Versions: 1 2 3 4 5 6 7 8 9 10 11 12 13 14 15 16 17 18 19 20 21 22 23 24 25 26 27 28 29 30 31 32 33 34 35 36 37 38 39 40 41 42 43 44 45 46 47 48 49 50

000
ASUS42 KTBW 251016
RWRFL
FLORIDA REGIONAL WEATHER ROUNDUP
NATIONAL WEATHER SERVICE TAMPA BAY RUSKIN FL
500 AM EST SUN FEB 25 2018

NOTE: "FAIR" INDICATES FEW OR NO CLOUDS BELOW 12,000 FEET WITH NO
SIGNIFICANT WEATHER AND/OR OBSTRUCTIONS TO VISIBILITY.

FLZ001>010-012>015-112-114-115-251100-
PANHANDLE FLORIDA

CITY           SKY/WX    TMP DP  RH WIND       PRES   REMARKS
PENSACOLA      FAIR      72  69  90 S10       30.04F
MILTON NAS     CLOUDY    71  70  96 S8        30.05
CRESTVIEW      FAIR      70  68  93 S5        30.07S
DUKE FIELD     MOCLDY    72  70  94 S8        30.06S
VALPARAISO     MOCLDY    71  71 100 S6        30.05S FOG
MARY ESTHER    CLOUDY    70  70 100 S5        30.05  FOG
PANAMA CITY    CLOUDY    71  70  96 SE5       30.07S FOG
TYNDALL AFB    CLOUDY    70  70 100 SE7       30.08R FOG
APALACHICOLA   CLOUDY    70  70 100 SE7       30.09S FOG

STATION/POSITION SKY/WX   TEMP    WIND        PRES    WAVE   SWELL
                          AIR SEA DIR/SP/G            HT/PER HT/PER
                          (F)     (DEG/KT/KT) (MB)    (FT/S) (FT/S)
29.2N   88.2W              73 71  200/  6/  8 1017.4F   4/ 7   3/ 7
28.8N   86.0W              75 75  180/ 10/ 12 1017.7F   3/ 5   2/ 5
PANAMA CITY BEAC           69 70  130/  8/  9 1018.6F
TOWER C                    69     170/ 13/ 14 1019.3F

$$
FLZ011-016>038-118-127-128-134-139-239-251100-
NORTH FLORIDA

CITY           SKY/WX    TMP DP  RH WIND       PRES   REMARKS
MARIANNA       CLOUDY    67  67 100 CALM      30.08S FOG
TALLAHASSEE    FOG       65  65 100 SE3       30.10S VSB 1/4
PERRY          FAIR      64  63  97 CALM      30.13S FOG
LIVE OAK       CLOUDY    63  64 100 CALM      30.14S
CROSS CITY     FAIR      59 N/A N/A CALM      30.18R
LAKE CITY      CLOUDY    63  61  94 CALM      30.15R
GAINESVILLE    FAIR      65  63  93 CALM      30.16S
WILLISTON      MOCLDY    68  68 100 CALM      30.14S
PALATKA        CLOUDY    64  64 100 S6        30.15S FOG
MAYPORT NAS    MOCLDY    68  64  87 S6        30.13S
JACKSONVILLE   MOCLDY    67  63  87 S3        30.13R
JAX NAS        MOCLDY    72  65  78 S7        30.14S
JAX CECIL      CLOUDY    66  64  94 CALM      30.14R
FERNANDINA BEA MOCLDY    70  63  78 S6        30.12S
ST AUGUSTINE   FAIR      64  62  93 CALM      30.16R
PALM COAST     FAIR      65  64  96 S3        30.15S

STATION/POSITION SKY/WX   TEMP    WIND        PRES    WAVE   SWELL
                          AIR SEA DIR/SP/G            HT/PER HT/PER
                          (F)     (DEG/KT/KT) (MB)    (FT/S) (FT/S)
SHELL POINT      NOT AVBL
KEATON BEACH               69     140/  6/ 10 1020.4R
CEDAR KEY                  73     200/ 13/ 14 1020.6R
FERNANDINA                 68 65  160/  4/  5 1021.3R
30.7N   81.3W                 65                N/A     3/10   2/11
MAYPORT                    68 60  180/  3/  5 1020.5S
31.4N   80.9W              63 61  180/ 10/ 10 1019.8R   3/10   3/10
ST AUGUSTINE               67 61  200/  6/  6 1021.1R

$$
FLZ040-043>046-052-053-057-058-063-144-251100-
INTERIOR CENTRAL FLORIDA

CITY           SKY/WX    TMP DP  RH WIND       PRES   REMARKS
OCALA          MOCLDY    67  64  90 CALM      30.15S
LEESBURG       FAIR      71  68  90 S7        30.16S
SANFORD        FAIR      67  64  90 SW3       30.16R
ORLANDO EXEC   FAIR      65  65 100 S3        30.16S
ORLANDO INTL   FAIR      65  65 100 CALM      30.16S FOG
KISSIMMEE      FOG       64  64 100 CALM      30.17S VSB 3/4
WINTER HAVEN   FAIR      67  66  97 SE5       30.16F
BARTOW         FOG       61 N/A N/A E3        30.16S VSB 1/2
SEBRING        PTSUNNY   64  62  92 CALM      30.16S
OKEECHOBEE     FAIR      63  63 100 SE5       30.15S

$$
FLZ041-047-054-059-064-141-147-251100-
EAST CENTRAL FLORIDA

CITY           SKY/WX    TMP DP  RH WIND       PRES   REMARKS
DAYTONA BEACH  FAIR      64  64 100 CALM      30.16R FOG
DELAND         FAIR      66  64  94 S8        30.15S
JFK SPACE CTR  FAIR      67  67 100 S5        30.15F
CAPE CANAVERAL FOG       65  64  96 CALM      30.15F VSB 3/8
PATRICK AFB    FAIR      69  69 100 CALM      30.16F
MELBOURNE      FAIR      67  65  93 CALM      30.16F FOG
VERO BEACH     FOG       62  61  96 CALM      30.16S VSB 1/2
FT PIERCE      FAIR      62  62 100 CALM      30.16S
STUART         MOCLDY    63  63 100 CALM      30.18R

STATION/POSITION SKY/WX   TEMP    WIND        PRES    WAVE   SWELL
                          AIR SEA DIR/SP/G            HT/PER HT/PER
                          (F)     (DEG/KT/KT) (MB)    (FT/S) (FT/S)
28.5N   80.2W              74 74  220/  2/  4 1021.4F   4/10   3/10
TRIDENT PIER               71 75  200/  4/  6 1022.4F
28.4N   80.5W                 74                N/A     3/ 5   2/11
27.5N   80.2W                 75                N/A     4/10   2/14

$$
FLZ050-056-061-142-242-148-248-149-249-151-251-155-255-
160-260-251100-
WEST CENTRAL FLORIDA

CITY           SKY/WX    TMP DP  RH WIND       PRES   REMARKS
CRYSTAL RIVER  MOCLDY    66  64  94 CALM      30.15R
INVERNESS      MOCLDY    64  64 100 CALM      30.16R
BROOKSVILLE    CLOUDY    69  66  90 E5        30.15F
CLEARWATER AIR CLOUDY    70  68  94 SE3       30.13S
ST PETE CLEARW CLOUDY    72  69  90 SE6       30.13F
TAMPA INTL     FAIR      71  68  90 E3        30.14S
TAMPA EXEC     MOCLDY    68  66  94 CALM      30.15S
PLANT CITY     CLOUDY    72  66  83 SE5       30.17S
MACDILL AFB    FAIR      69  67  93 E5        30.13F FOG
PETER O KNIGHT CLOUDY   N/A N/A N/A SE5       30.14S
ST PETERSBURG  FAIR      72  68  87 SE10      30.12S
SARASOTA       FAIR      68  67  96 SE7       30.12S
VENICE         FAIR      68  68 100 E6        30.14S

STATION/POSITION SKY/WX   TEMP    WIND        PRES    WAVE   SWELL
                          AIR SEA DIR/SP/G            HT/PER HT/PER
                          (F)     (DEG/KT/KT) (MB)    (FT/S) (FT/S)
27.3N   84.2W                 75                N/A     3/ 7
CLEARWATER BEACH           72 74  110/  4/  5 1020.2R
MIDDLE TAMPA BAY           71     130/  6/  8 1020.5F
VENICE                     69 75  100/  5/  6 1020.5F

$$
FLZ066-069-070-075>078-162-262-165-265-251100-
SOUTHWEST FLORIDA AND KEYS

CITY           SKY/WX    TMP DP  RH WIND       PRES   REMARKS
PUNTA GORDA    FAIR      61  59  93 E3        30.16S FOG
FT MYERS       FAIR      65  65 100 CALM      30.14S
SOUTHWEST INTL FAIR      64  64 100 E3        30.15S
NAPLES         FAIR      67  66  97 E3        30.14S
MARCO ISLAND   FAIR      66  65  96 NE5       30.15S
IMMOKALEE      FOG       61  61 100 CALM      30.16S VSB<1/4
MARATHON       FAIR      76  66  71 SE10      30.12S
KEY WEST NAS   FAIR      75  67  76 SE13      30.11S
KEY WEST INTL  FAIR      76  69  79 SE13      30.12R

STATION/POSITION SKY/WX   TEMP    WIND        PRES    WAVE   SWELL
                          AIR SEA DIR/SP/G            HT/PER HT/PER
                          (F)     (DEG/KT/KT) (MB)    (FT/S) (FT/S)
NAPLES                        74   80/  4/  6 1020.6R
DRY TORTUGAS               77     140/ 12/ 12 1019.4R
SAND KEY                   77                 1020.1R
LONG KEY                   76     160/ 10       N/A
MOLASSES REEF              76 78  120/ 13/ 15 1020.7R

$$
FLZ067-068-071>074-168-172>174-251100-
SOUTHEAST FLORIDA

CITY           SKY/WX    TMP DP  RH WIND       PRES   REMARKS
W PALM BEACH   FAIR      72  66  81 SE5       30.16S
FT LAUDER-EXEC FAIR      72  68  87 E6        30.15S
FT LAUDERDALE  FAIR      74  69  85 SE8       30.15R
POMPANO BEACH  FAIR      75  68  78 SE10      30.16R
PEMBROKE PINES FAIR      71  67  87 E3        30.17R
OPA LOCKA      FAIR      71  67  87 E5        30.15S
MIAMI          MOCLDY    74  69  85 E8        30.15R
WEST KENDALL   CLOUDY    73  67  81 E6        30.15R
HOMESTEAD      FAIR      73  68  84 SE5       30.14R

STATION/POSITION SKY/WX   TEMP    WIND        PRES    WAVE   SWELL
                          AIR SEA DIR/SP/G            HT/PER HT/PER
                          (F)     (DEG/KT/KT) (MB)    (FT/S) (FT/S)
PORT EVERGLADES            75     120/  4/  7 1021.0
VIRGINIA KEY               75 77   90/  8/ 10 1020.0R
LAKE WORTH                 75 76  140/  9/ 12 1022.2R
FOWEY ROCKS                75 77  100/ 10/ 12 1021.5R
SETTLEMENT POINT           73     130/  6/  6 1021.9R

$$




USA.gov is the U.S. government's official web portal to all federal, state and local government web resources and services.